Time,TemperatureF,DewpointF,PressureIn,WindDirection,WindDirectionDegrees,WindSpeedMPH,WindSpeedGustMPH,Humidity,HourlyPrecipIn,Conditions,Clouds,dailyrainin,SolarRadiationWatts/m^2,SoftwareType,DateUTC
2013-06-02 00:02:00,76.0,73.0,-100.00,SSE,166,5.0,7.0,91,0.00,,,0.00,0.000000,,2013-06-02 05:02:00,
2013-06-02 00:32:00,76.0,74.0,-100.00,South,175,4.0,8.0,93,0.00,,,0.00,0.000000,,2013-06-02 05:32:00,
2013-06-02 00:42:00,76.0,74.0,-100.00,South,175,4.0,8.0,93,0.00,,,0.00,0.000000,,2013-06-02 05:42:00,
2013-06-02 00:52:00,76.0,74.0,-100.00,South,175,4.0,8.0,93,0.00,,,0.00,0.000000,,2013-06-02 05:52:00,
2013-06-02 01:01:00,76.0,74.0,-100.00,South,175,4.0,8.0,93,0.00,,,0.00,0.000000,,2013-06-02 06:01:00,
2013-06-02 01:32:00,75.0,73.0,-100.00,SE,136,3.0,5.0,95,0.00,,,0.00,0.000000,,2013-06-02 06:32:00,
2013-06-02 01:42:00,75.0,73.0,-100.00,SE,136,3.0,5.0,95,0.00,,,0.00,0.000000,,2013-06-02 06:42:00,
2013-06-02 01:52:00,75.0,73.0,-100.00,SE,136,3.0,5.0,95,0.00,,,0.00,0.000000,,2013-06-02 06:52:00,
2013-06-02 02:01:00,75.0,73.0,-100.00,SE,136,3.0,5.0,95,0.00,,,0.00,0.000000,,2013-06-02 07:01:00,
2013-06-02 02:32:00,74.0,73.0,-100.00,South,171,4.0,8.0,96,0.00,,,0.00,0.000000,,2013-06-02 07:32:00,
2013-06-02 02:42:00,74.0,73.0,-100.00,South,171,4.0,8.0,96,0.00,,,0.00,0.000000,,2013-06-02 07:42:00,
2013-06-02 02:52:00,74.0,73.0,-100.00,South,171,4.0,8.0,96,0.00,,,0.00,0.000000,,2013-06-02 07:52:00,
2013-06-02 03:01:00,74.0,73.0,-100.00,South,171,4.0,8.0,96,0.00,,,0.00,0.000000,,2013-06-02 08:01:00,
2013-06-02 03:32:00,74.0,73.0,-100.00,SSE,153,5.0,7.0,96,0.00,,,0.00,0.000000,,2013-06-02 08:32:00,
2013-06-02 03:42:00,74.0,73.0,-100.00,SSE,153,5.0,7.0,96,0.00,,,0.00,0.000000,,2013-06-02 08:42:00,
2013-06-02 03:52:00,74.0,73.0,-100.00,SSE,153,5.0,7.0,96,0.00,,,0.00,0.000000,,2013-06-02 08:52:00,
2013-06-02 04:01:00,74.0,73.0,-100.00,SSE,153,5.0,7.0,96,0.00,,,0.00,0.000000,,2013-06-02 09:01:00,
2013-06-02 04:33:00,74.0,73.0,-100.00,NNE,18,6.0,13.0,97,0.00,,,0.00,0.000000,,2013-06-02 09:33:00,
2013-06-02 04:43:00,74.0,73.0,-100.00,NNE,18,6.0,13.0,97,0.00,,,0.00,0.000000,,2013-06-02 09:43:00,
2013-06-02 04:53:00,74.0,73.0,-100.00,NNE,18,6.0,13.0,97,0.00,,,0.00,0.000000,,2013-06-02 09:53:00,
2013-06-02 05:02:00,74.0,73.0,-100.00,NNE,18,6.0,13.0,97,0.00,,,0.00,0.000000,,2013-06-02 10:02:00,
2013-06-02 05:33:00,70.0,67.0,-100.00,WNW,302,5.0,13.0,91,0.32,,,0.32,0.000000,,2013-06-02 10:33:00,
2013-06-02 05:42:00,70.0,67.0,-100.00,WNW,302,5.0,13.0,91,0.32,,,0.32,0.000000,,2013-06-02 10:42:00,
2013-06-02 05:52:00,70.0,67.0,-100.00,WNW,302,5.0,13.0,91,0.32,,,0.32,0.000000,,2013-06-02 10:52:00,
2013-06-02 06:02:00,70.0,67.0,-100.00,WNW,302,5.0,13.0,91,0.32,,,0.32,0.000000,,2013-06-02 11:02:00,
2013-06-02 06:32:00,69.0,68.0,-100.00,WSW,247,2.0,10.0,97,0.22,,,0.54,0.000000,,2013-06-02 11:32:00,
2013-06-02 06:42:00,69.0,68.0,-100.00,WSW,247,2.0,10.0,97,0.22,,,0.54,0.000000,,2013-06-02 11:42:00,
2013-06-02 06:52:00,69.0,68.0,-100.00,WSW,247,2.0,10.0,97,0.22,,,0.54,0.000000,,2013-06-02 11:52:00,
2013-06-02 07:01:00,69.0,68.0,-100.00,WSW,247,2.0,10.0,97,0.22,,,0.54,0.000000,,2013-06-02 12:01:00,
2013-06-02 07:32:00,69.0,68.0,-100.00,ESE,120,5.0,15.0,97,0.27,,,0.81,2.000000,,2013-06-02 12:32:00,
2013-06-02 07:42:00,69.0,68.0,-100.00,ESE,120,5.0,15.0,97,0.27,,,0.81,2.000000,,2013-06-02 12:42:00,
2013-06-02 07:52:00,69.0,68.0,-100.00,ESE,120,5.0,15.0,97,0.27,,,0.81,2.000000,,2013-06-02 12:52:00,
2013-06-02 08:01:00,69.0,68.0,-100.00,ESE,120,5.0,15.0,97,0.27,,,0.81,2.000000,,2013-06-02 13:01:00,
2013-06-02 08:32:00,69.0,68.0,-100.00,WNW,283,8.0,16.0,97,0.02,,,0.83,12.000000,,2013-06-02 13:32:00,
2013-06-02 08:42:00,69.0,68.0,-100.00,WNW,283,8.0,16.0,97,0.02,,,0.83,12.000000,,2013-06-02 13:42:00,
2013-06-02 08:52:00,69.0,68.0,-100.00,WNW,283,8.0,16.0,97,0.02,,,0.83,12.000000,,2013-06-02 13:52:00,
2013-06-02 09:02:00,69.0,68.0,-100.00,WNW,283,8.0,16.0,97,0.02,,,0.83,12.000000,,2013-06-02 14:02:00,
2013-06-02 09:32:00,70.0,69.0,-100.00,WSW,256,4.0,11.0,97,0.00,,,0.83,21.000000,,2013-06-02 14:32:00,
2013-06-02 09:42:00,70.0,69.0,-100.00,WSW,256,4.0,11.0,97,0.00,,,0.83,21.000000,,2013-06-02 14:42:00,
2013-06-02 09:52:00,70.0,69.0,-100.00,WSW,256,4.0,11.0,97,0.00,,,0.83,21.000000,,2013-06-02 14:52:00,
2013-06-02 10:01:00,70.0,69.0,-100.00,WSW,256,4.0,11.0,97,0.00,,,0.83,21.000000,,2013-06-02 15:01:00,
2013-06-02 10:33:00,70.0,69.0,-100.00,SW,223,6.0,10.0,96,0.03,,,-99.99,32.000000,,2013-06-02 15:33:00,
2013-06-02 10:43:00,70.0,69.0,-100.00,SW,223,6.0,10.0,96,0.03,,,-99.99,32.000000,,2013-06-02 15:43:00,
2013-06-02 10:53:00,70.0,69.0,-100.00,SW,223,6.0,10.0,96,0.03,,,-99.99,32.000000,,2013-06-02 15:53:00,
2013-06-02 11:03:00,70.0,69.0,-100.00,SW,223,6.0,10.0,96,0.03,,,-99.99,32.000000,,2013-06-02 16:03:00,
2013-06-02 11:33:00,71.0,69.0,-100.00,SE,126,6.0,13.0,95,0.00,,,0.86,86.000000,,2013-06-02 16:33:00,
2013-06-02 11:42:00,71.0,69.0,-100.00,SE,126,6.0,13.0,95,0.00,,,0.86,86.000000,,2013-06-02 16:42:00,
2013-06-02 11:53:00,71.0,69.0,-100.00,SE,126,6.0,13.0,95,0.00,,,0.86,86.000000,,2013-06-02 16:53:00,
2013-06-02 12:02:00,71.0,69.0,-100.00,SE,126,6.0,13.0,95,0.00,,,0.86,86.000000,,2013-06-02 17:02:00,
2013-06-02 12:32:00,74.0,69.0,-100.00,NW,314,8.0,19.0,85,0.00,,,0.86,247.000000,,2013-06-02 17:32:00,
2013-06-02 12:42:00,74.0,69.0,-100.00,NW,314,8.0,19.0,85,0.00,,,0.86,247.000000,,2013-06-02 17:42:00,
2013-06-02 12:52:00,74.0,69.0,-100.00,NW,314,8.0,19.0,85,0.00,,,0.86,247.000000,,2013-06-02 17:52:00,
2013-06-02 13:01:00,74.0,69.0,-100.00,NW,314,8.0,19.0,85,0.00,,,0.86,247.000000,,2013-06-02 18:01:00,
2013-06-02 13:32:00,78.0,71.0,-100.00,NW,315,8.0,16.0,80,0.00,,,0.86,534.000000,,2013-06-02 18:32:00,
2013-06-02 13:42:00,78.0,71.0,-100.00,NW,315,8.0,16.0,80,0.00,,,0.86,534.000000,,2013-06-02 18:42:00,
2013-06-02 13:52:00,78.0,71.0,-100.00,NW,315,8.0,16.0,80,0.00,,,0.86,534.000000,,2013-06-02 18:52:00,
2013-06-02 14:01:00,78.0,71.0,-100.00,NW,315,8.0,16.0,80,0.00,,,0.86,534.000000,,2013-06-02 19:01:00,
2013-06-02 14:32:00,81.0,72.0,-100.00,NNW,335,7.0,17.0,74,0.00,,,0.86,702.000000,,2013-06-02 19:32:00,
2013-06-02 14:42:00,81.0,72.0,-100.00,NNW,335,7.0,17.0,74,0.00,,,0.86,702.000000,,2013-06-02 19:42:00,
2013-06-02 14:52:00,81.0,72.0,-100.00,NNW,335,7.0,17.0,74,0.00,,,0.86,702.000000,,2013-06-02 19:52:00,
2013-06-02 15:02:00,81.0,72.0,-100.00,NNW,335,7.0,17.0,74,0.00,,,0.86,702.000000,,2013-06-02 20:02:00,
2013-06-02 15:32:00,85.0,71.0,-100.00,NW,310,8.0,20.0,64,0.00,,,0.86,715.000000,,2013-06-02 20:32:00,
2013-06-02 15:42:00,85.0,71.0,-100.00,NW,310,8.0,20.0,64,0.00,,,0.86,715.000000,,2013-06-02 20:42:00,
2013-06-02 15:52:00,85.0,71.0,-100.00,NW,310,8.0,20.0,64,0.00,,,0.86,715.000000,,2013-06-02 20:52:00,
2013-06-02 16:01:00,85.0,71.0,-100.00,NW,310,8.0,20.0,64,0.00,,,0.86,715.000000,,2013-06-02 21:01:00,
2013-06-02 16:33:00,82.0,71.0,-100.00,NW,322,6.0,16.0,69,0.00,,,0.86,443.000000,,2013-06-02 21:33:00,
2013-06-02 16:43:00,82.0,71.0,-100.00,NW,322,6.0,16.0,69,0.00,,,0.86,443.000000,,2013-06-02 21:43:00,
2013-06-02 16:53:00,82.0,71.0,-100.00,NW,322,6.0,16.0,69,0.00,,,0.86,443.000000,,2013-06-02 21:53:00,
2013-06-02 17:03:00,82.0,71.0,-100.00,NW,322,6.0,16.0,69,0.00,,,0.86,443.000000,,2013-06-02 22:03:00,
2013-06-02 17:33:00,82.0,72.0,-100.00,NNE,22,6.0,12.0,72,0.00,,,0.86,349.000000,,2013-06-02 22:33:00,
2013-06-02 17:42:00,82.0,72.0,-100.00,NNE,22,6.0,12.0,72,0.00,,,0.86,349.000000,,2013-06-02 22:42:00,
2013-06-02 17:53:00,82.0,72.0,-100.00,NNE,22,6.0,12.0,72,0.00,,,0.86,349.000000,,2013-06-02 22:53:00,
2013-06-02 18:02:00,82.0,72.0,-100.00,NNE,22,6.0,12.0,72,0.00,,,0.86,349.000000,,2013-06-02 23:02:00,
2013-06-02 18:32:00,83.0,72.0,-100.00,North,2,4.0,12.0,69,0.00,,,0.86,307.000000,,2013-06-02 23:32:00,
2013-06-02 18:42:00,83.0,72.0,-100.00,North,2,4.0,12.0,69,0.00,,,0.86,307.000000,,2013-06-02 23:42:00,
2013-06-02 18:52:00,83.0,72.0,-100.00,North,2,4.0,12.0,69,0.00,,,0.86,307.000000,,2013-06-02 23:52:00,
2013-06-02 19:01:00,83.0,72.0,-100.00,North,2,4.0,12.0,69,0.00,,,0.86,307.000000,,2013-06-03 00:01:00,
2013-06-02 19:32:00,76.0,70.0,-100.00,NE,54,4.0,10.0,82,0.00,,,0.86,120.000000,,2013-06-03 00:32:00,
2013-06-02 19:42:00,76.0,70.0,-100.00,NE,54,4.0,10.0,82,0.00,,,0.86,120.000000,,2013-06-03 00:42:00,
2013-06-02 19:52:00,76.0,70.0,-100.00,NE,54,4.0,10.0,82,0.00,,,0.86,120.000000,,2013-06-03 00:52:00,
2013-06-02 20:01:00,76.0,70.0,-100.00,NE,54,4.0,10.0,82,0.00,,,0.86,120.000000,,2013-06-03 01:01:00,
2013-06-02 20:32:00,74.0,70.0,-100.00,NNE,24,3.0,6.0,88,0.00,,,0.86,29.000000,,2013-06-03 01:32:00,
2013-06-02 20:42:00,74.0,70.0,-100.00,NNE,24,3.0,6.0,88,0.00,,,0.86,29.000000,,2013-06-03 01:42:00,
2013-06-02 20:52:00,74.0,70.0,-100.00,NNE,24,3.0,6.0,88,0.00,,,0.86,29.000000,,2013-06-03 01:52:00,
2013-06-02 21:02:00,74.0,70.0,-100.00,NNE,24,3.0,6.0,88,0.00,,,0.86,29.000000,,2013-06-03 02:02:00,
2013-06-02 21:32:00,72.0,70.0,-100.00,NW,326,4.0,5.0,92,0.00,,,0.86,3.000000,,2013-06-03 02:32:00,
2013-06-02 21:42:00,72.0,70.0,-100.00,NW,326,4.0,5.0,92,0.00,,,0.86,3.000000,,2013-06-03 02:42:00,
2013-06-02 21:52:00,72.0,70.0,-100.00,NW,326,4.0,5.0,92,0.00,,,0.86,3.000000,,2013-06-03 02:52:00,
2013-06-02 22:02:00,72.0,70.0,-100.00,NW,326,4.0,5.0,92,0.00,,,0.86,3.000000,,2013-06-03 03:02:00,
2013-06-02 22:33:00,71.0,69.0,-100.00,NNW,342,4.0,5.0,95,0.00,,,0.86,0.000000,,2013-06-03 03:33:00,
2013-06-02 22:43:00,71.0,69.0,-100.00,NNW,342,4.0,5.0,95,0.00,,,0.86,0.000000,,2013-06-03 03:43:00,
2013-06-02 22:53:00,71.0,69.0,-100.00,NNW,342,4.0,5.0,95,0.00,,,0.86,0.000000,,2013-06-03 03:53:00,
2013-06-02 23:03:00,71.0,69.0,-100.00,NNW,342,4.0,5.0,95,0.00,,,0.86,0.000000,,2013-06-03 04:03:00,
2013-06-02 23:33:00,70.0,69.0,-100.00,NE,49,4.0,5.0,96,0.00,,,0.86,0.000000,,2013-06-03 04:33:00,
2013-06-02 23:42:00,70.0,69.0,-100.00,NE,49,4.0,5.0,96,0.00,,,0.86,0.000000,,2013-06-03 04:42:00,
2013-06-02 23:53:00,70.0,69.0,-100.00,NE,49,4.0,5.0,96,0.00,,,0.86,0.000000,,2013-06-03 04:53:00,